NOZ1170 ENGM-BIKF

Flight info

Callsign NOZ1170
Flight time 2h 24m
Altitude 34000
Route EVTOG DCT BARUD/M077F340 DCT ING DCT NASBU NASBU5N
Aircraft B738/M-SDE2E3GHIJ1LRWXY/LB1

Departure

Time 2026-05-06 13:15
Airport Oslo-Gardermoen International Airport (ENGM)

Arrival

Time 2026-05-06 15:39
Airport Keflavik International Airport (BIKF)
Time Latitude Longitude Altitude Speed Heading
2026-05-06 13:08 60.19643 11.09870 684 ft 0 kts 106°
2026-05-06 13:09 60.19644 11.09871 684 ft 0 kts 102°
2026-05-06 13:09 60.19647 11.09877 684 ft 1 kts 52°
2026-05-06 13:09 60.19653 11.09871 679 ft 2 kts 327°
2026-05-06 13:09 60.19672 11.09823 684 ft 7 kts 308°
2026-05-06 13:10 60.19710 11.09707 682 ft 14 kts 293°
2026-05-06 13:10 60.19743 11.09492 680 ft 18 kts 286°
2026-05-06 13:10 60.19780 11.09231 682 ft 20 kts 286°
2026-05-06 13:10 60.19818 11.08964 679 ft 20 kts 286°
2026-05-06 13:11 60.19849 11.08764 677 ft 11 kts 303°
2026-05-06 13:11 60.19923 11.08757 679 ft 12 kts 16°
2026-05-06 13:11 60.20015 11.08810 679 ft 16 kts 16°
2026-05-06 13:11 60.20136 11.08881 680 ft 20 kts 16°
2026-05-06 13:12 60.20275 11.08961 680 ft 21 kts 15°
2026-05-06 13:12 60.20411 11.09039 681 ft 20 kts 16°
2026-05-06 13:12 60.20543 11.09115 681 ft 19 kts 15°
2026-05-06 13:12 60.20626 11.09131 680 ft 10 kts 330°
2026-05-06 13:13 60.20654 11.09006 681 ft 10 kts 285°
2026-05-06 13:13 60.20675 11.08860 676 ft 11 kts 286°
2026-05-06 13:13 60.20696 11.08715 678 ft 9 kts 286°
2026-05-06 13:13 60.20690 11.08635 678 ft 5 kts 209°
2026-05-06 13:14 60.20677 11.08628 677 ft 0 kts 195°
2026-05-06 13:14 60.20617 11.08595 676 ft 36 kts 195°
2026-05-06 13:14 60.20134 11.08317 675 ft 107 kts 196°
2026-05-06 13:14 60.19219 11.07789 672 ft 165 kts 196°
2026-05-06 13:15 60.18046 11.07103 1213 ft 178 kts 196°
2026-05-06 13:15 60.16871 11.06335 2134 ft 176 kts 211°
2026-05-06 13:15 60.16053 11.04562 2827 ft 177 kts 250°
2026-05-06 13:15 60.15596 11.02269 3682 ft 178 kts 248°
2026-05-06 13:16 60.15099 10.99917 4297 ft 194 kts 248°
2026-05-06 13:16 60.14532 10.97281 4506 ft 217 kts 248°
2026-05-06 13:16 60.14026 10.94233 4738 ft 244 kts 263°
2026-05-06 13:16 60.13925 10.90726 5288 ft 257 kts 268°
2026-05-06 13:17 60.13840 10.87137 6189 ft 257 kts 267°
2026-05-06 13:17 60.14033 10.83584 6939 ft 263 kts 293°
2026-05-06 13:17 60.15195 10.80759 7665 ft 269 kts 326°
2026-05-06 13:17 60.16803 10.78812 8505 ft 271 kts 327°
2026-05-06 13:18 60.18426 10.76798 9250 ft 277 kts 326°
2026-05-06 13:18 60.20069 10.74737 10015 ft 280 kts 326°
2026-05-06 13:18 60.21753 10.72604 10488 ft 296 kts 326°
2026-05-06 13:18 60.23564 10.70291 10661 ft 320 kts 325°
2026-05-06 13:19 60.25500 10.67804 10840 ft 341 kts 325°
2026-05-06 13:19 60.27550 10.65164 11144 ft 356 kts 325°
2026-05-06 13:19 60.29653 10.62452 11803 ft 360 kts 324°
2026-05-06 13:19 60.31673 10.59489 12602 ft 358 kts 314°
2026-05-06 13:20 60.33284 10.55724 13444 ft 353 kts 301°
2026-05-06 13:20 60.34498 10.51446 14197 ft 351 kts 294°
2026-05-06 13:20 60.35619 10.47062 14887 ft 352 kts 294°
2026-05-06 13:20 60.36745 10.42655 15546 ft 354 kts 293°
2026-05-06 13:21 60.37875 10.38235 16218 ft 355 kts 293°
2026-05-06 13:21 60.39013 10.33792 16881 ft 357 kts 292°
2026-05-06 13:21 60.40142 10.29387 17528 ft 358 kts 292°
2026-05-06 13:21 60.41291 10.24906 18162 ft 360 kts 292°
2026-05-06 13:22 60.42446 10.20404 18708 ft 361 kts 292°
2026-05-06 13:22 60.43606 10.15874 19195 ft 364 kts 291°
2026-05-06 13:22 60.44772 10.11320 19838 ft 363 kts 291°
2026-05-06 13:22 60.45932 10.06779 20435 ft 364 kts 291°
2026-05-06 13:23 60.47100 10.02198 20905 ft 367 kts 291°
2026-05-06 13:23 60.48274 9.97578 21338 ft 370 kts 290°
2026-05-06 13:23 60.49456 9.92923 21779 ft 372 kts 290°
2026-05-06 13:23 60.50642 9.88242 22257 ft 374 kts 290°
2026-05-06 13:24 60.51831 9.83540 22708 ft 376 kts 290°
2026-05-06 13:24 60.53027 9.78798 23146 ft 379 kts 290°
2026-05-06 13:24 60.54229 9.74021 23551 ft 381 kts 289°
2026-05-06 13:24 60.55434 9.69228 23926 ft 382 kts 289°
2026-05-06 13:25 60.56642 9.64415 24241 ft 384 kts 289°
2026-05-06 13:25 60.57858 9.59549 24520 ft 387 kts 289°
2026-05-06 13:25 60.59080 9.54652 24830 ft 389 kts 289°
2026-05-06 13:25 60.60306 9.49727 25201 ft 391 kts 289°
2026-05-06 13:26 60.61536 9.44782 25547 ft 392 kts 289°
2026-05-06 13:26 60.62770 9.39805 25868 ft 395 kts 289°
2026-05-06 13:26 60.64008 9.34801 26169 ft 397 kts 289°
2026-05-06 13:26 60.65252 9.29756 26450 ft 399 kts 289°
2026-05-06 13:27 60.66501 9.24686 26753 ft 401 kts 289°
2026-05-06 13:27 60.67754 9.19587 27047 ft 403 kts 288°
2026-05-06 13:27 60.69009 9.14466 27343 ft 405 kts 288°
2026-05-06 13:27 60.70269 9.09316 27676 ft 405 kts 288°
2026-05-06 13:28 60.71525 9.04175 28113 ft 404 kts 288°
2026-05-06 13:28 60.72774 8.99055 28592 ft 402 kts 288°
2026-05-06 13:28 60.74016 8.93944 28980 ft 402 kts 288°
2026-05-06 13:28 60.75254 8.88836 29479 ft 401 kts 288°
2026-05-06 13:29 60.76490 8.83724 29886 ft 400 kts 288°
2026-05-06 13:29 60.77722 8.78614 30217 ft 400 kts 288°
2026-05-06 13:29 60.78953 8.73493 30461 ft 402 kts 288°
2026-05-06 13:29 60.80189 8.68334 30661 ft 404 kts 289°
2026-05-06 13:30 60.81428 8.63157 30895 ft 405 kts 289°
2026-05-06 13:30 60.83913 8.52733 31144 ft 408 kts 289°
2026-05-06 13:30 60.85156 8.47513 31462 ft 407 kts 289°
2026-05-06 13:31 60.86397 8.42282 31693 ft 408 kts 289°
2026-05-06 13:31 60.87641 8.37023 31851 ft 411 kts 289°
2026-05-06 13:31 60.88887 8.31740 32083 ft 412 kts 289°
2026-05-06 13:31 60.90133 8.26445 32320 ft 412 kts 289°
2026-05-06 13:32 60.91383 8.21118 32432 ft 416 kts 290°
2026-05-06 13:32 60.93910 8.10310 32757 ft 419 kts 290°
2026-05-06 13:32 60.95170 8.04911 33056 ft 418 kts 290°
2026-05-06 13:33 60.96427 7.99509 33251 ft 419 kts 290°
2026-05-06 13:33 60.97687 7.94075 33408 ft 421 kts 290°
2026-05-06 13:33 60.98946 7.88634 33632 ft 421 kts 290°
2026-05-06 13:33 61.00206 7.83175 33884 ft 422 kts 290°
2026-05-06 13:34 61.01464 7.77711 34043 ft 423 kts 290°
2026-05-06 13:34 61.02722 7.72230 34203 ft 423 kts 290°
2026-05-06 13:34 61.03978 7.66745 34400 ft 423 kts 290°
2026-05-06 13:34 61.05233 7.61250 34604 ft 424 kts 291°
2026-05-06 13:35 61.06474 7.55797 34684 ft 427 kts 291°
2026-05-06 13:35 61.07739 7.50227 34796 ft 429 kts 291°
2026-05-06 13:35 61.09003 7.44650 35023 ft 428 kts 291°
2026-05-06 13:35 61.10280 7.39004 35216 ft 427 kts 291°
2026-05-06 13:36 61.11538 7.33426 35350 ft 428 kts 291°
2026-05-06 13:36 61.12777 7.27913 35479 ft 429 kts 291°
2026-05-06 13:36 61.14034 7.22309 35622 ft 429 kts 291°
2026-05-06 13:36 61.15287 7.16706 35835 ft 429 kts 291°
2026-05-06 13:37 61.16540 7.11089 35926 ft 431 kts 291°
2026-05-06 13:37 61.19058 6.99752 35942 ft 435 kts 291°
2026-05-06 13:38 61.21570 6.88387 35969 ft 433 kts 291°
2026-05-06 13:38 61.24069 6.77022 35963 ft 433 kts 291°
2026-05-06 13:39 61.26554 6.65655 35964 ft 432 kts 291°
2026-05-06 13:39 61.29027 6.54280 35969 ft 431 kts 291°
2026-05-06 13:40 61.31489 6.42895 35987 ft 431 kts 291°
2026-05-06 13:40 61.33937 6.31513 35992 ft 430 kts 290°
2026-05-06 13:41 61.36372 6.20131 35991 ft 430 kts 290°
2026-05-06 13:41 61.38796 6.08732 35992 ft 430 kts 290°
2026-05-06 13:42 61.41213 5.97312 35997 ft 430 kts 290°
2026-05-06 13:42 61.43618 5.85879 35985 ft 430 kts 290°
2026-05-06 13:43 61.46012 5.74442 35996 ft 429 kts 290°
2026-05-06 13:43 61.48395 5.62987 36015 ft 430 kts 290°
2026-05-06 13:44 61.50772 5.51500 36022 ft 430 kts 290°
2026-05-06 13:44 61.53142 5.39979 36013 ft 431 kts 290°
2026-05-06 13:45 61.55511 5.28404 36016 ft 432 kts 290°
2026-05-06 13:45 61.59030 5.11082 36021 ft 432 kts 290°
2026-05-06 13:46 61.61379 4.99442 36023 ft 433 kts 290°
2026-05-06 13:46 61.63719 4.87774 36022 ft 433 kts 290°
2026-05-06 13:47 61.66051 4.76081 36020 ft 434 kts 290°
2026-05-06 13:47 61.68377 4.64351 36002 ft 434 kts 289°
2026-05-06 13:48 61.70693 4.52600 35995 ft 434 kts 289°
2026-05-06 13:48 61.72999 4.40831 35994 ft 435 kts 289°
2026-05-06 13:49 61.75298 4.29032 35995 ft 435 kts 289°
2026-05-06 13:49 61.77585 4.17220 35986 ft 435 kts 289°
2026-05-06 13:50 61.79865 4.05379 35993 ft 435 kts 289°
2026-05-06 13:50 61.82135 3.93518 35987 ft 435 kts 289°
2026-05-06 13:51 61.84395 3.81640 35980 ft 435 kts 289°
2026-05-06 13:51 61.86645 3.69740 35984 ft 435 kts 289°
2026-05-06 13:52 61.88885 3.57819 35987 ft 436 kts 289°
2026-05-06 13:52 61.91120 3.45854 35983 ft 437 kts 289°
2026-05-06 13:53 61.93348 3.33855 35976 ft 437 kts 289°
2026-05-06 13:53 61.95566 3.21835 35976 ft 437 kts 289°
2026-05-06 13:54 61.97775 3.09790 35975 ft 437 kts 289°
2026-05-06 13:54 61.99960 2.97803 35976 ft 437 kts 289°
2026-05-06 13:55 62.02148 2.85721 35974 ft 438 kts 289°
2026-05-06 13:55 62.04328 2.73609 35969 ft 438 kts 289°
2026-05-06 13:56 62.06145 2.63457 35970 ft 438 kts 289°
2026-05-06 13:56 62.08305 2.51318 35970 ft 438 kts 289°
2026-05-06 13:57 62.10438 2.39250 35971 ft 437 kts 289°
2026-05-06 13:57 62.12574 2.27092 35970 ft 437 kts 289°
2026-05-06 13:58 62.14697 2.14928 35971 ft 437 kts 289°
2026-05-06 13:58 62.16812 2.02731 35964 ft 437 kts 289°
2026-05-06 13:59 62.18913 1.90538 35964 ft 436 kts 288°
2026-05-06 13:59 62.21003 1.78332 35964 ft 436 kts 288°
2026-05-06 14:00 62.23082 1.66106 35970 ft 437 kts 288°
2026-05-06 14:00 62.25151 1.53861 35967 ft 437 kts 288°
2026-05-06 14:01 62.27209 1.41596 35973 ft 437 kts 288°
2026-05-06 14:01 62.29259 1.29301 35966 ft 437 kts 288°
2026-05-06 14:02 62.31299 1.16987 35966 ft 437 kts 288°
2026-05-06 14:02 62.33329 1.04648 35968 ft 438 kts 288°
2026-05-06 14:03 62.35333 0.92381 35969 ft 438 kts 288°
2026-05-06 14:03 62.37344 0.79993 35967 ft 438 kts 288°
2026-05-06 14:04 62.39342 0.67597 35971 ft 438 kts 288°
2026-05-06 14:04 62.41331 0.55176 35969 ft 438 kts 288°
2026-05-06 14:05 62.43308 0.42740 35968 ft 438 kts 288°
2026-05-06 14:05 62.45273 0.30297 35974 ft 438 kts 288°
2026-05-06 14:06 62.47227 0.17836 35977 ft 438 kts 287°
2026-05-06 14:06 62.49170 0.05373 35976 ft 437 kts 287°
2026-05-06 14:07 62.51063 -0.07133 35971 ft 437 kts 286°
2026-05-06 14:07 62.52838 -0.19714 35997 ft 437 kts 286°
2026-05-06 14:08 62.54590 -0.32328 35988 ft 437 kts 286°
2026-05-06 14:08 62.56342 -0.44954 35985 ft 438 kts 286°
2026-05-06 14:09 62.58091 -0.57595 35977 ft 438 kts 286°
2026-05-06 14:09 62.59834 -0.70262 35982 ft 438 kts 285°
2026-05-06 14:10 62.61566 -0.82949 35985 ft 438 kts 285°
2026-05-06 14:10 62.63286 -0.95653 35988 ft 438 kts 285°
2026-05-06 14:11 62.64996 -1.08377 35984 ft 439 kts 285°
2026-05-06 14:11 62.66684 -1.21037 35990 ft 439 kts 285°
2026-05-06 14:12 62.68371 -1.33800 35990 ft 439 kts 285°
2026-05-06 14:12 62.70048 -1.46581 35990 ft 439 kts 285°
2026-05-06 14:13 62.71713 -1.59373 35991 ft 439 kts 285°
2026-05-06 14:13 62.73365 -1.72173 35991 ft 439 kts 285°
2026-05-06 14:14 62.75005 -1.84987 36000 ft 438 kts 285°
2026-05-06 14:14 62.76633 -1.97806 35994 ft 438 kts 285°
2026-05-06 14:15 62.78249 -2.10644 35998 ft 438 kts 284°
2026-05-06 14:15 62.79852 -2.23476 35997 ft 438 kts 284°
2026-05-06 14:16 62.81443 -2.36328 36009 ft 438 kts 284°
2026-05-06 14:16 62.83023 -2.49193 36008 ft 438 kts 284°
2026-05-06 14:17 62.84592 -2.62087 36003 ft 438 kts 284°
2026-05-06 14:17 62.86150 -2.74993 36010 ft 439 kts 284°
2026-05-06 14:18 62.87696 -2.87917 36012 ft 439 kts 284°
2026-05-06 14:18 62.89232 -3.00866 36009 ft 439 kts 284°
2026-05-06 14:19 62.90756 -3.13829 36015 ft 439 kts 284°
2026-05-06 14:19 62.92269 -3.26812 36012 ft 439 kts 284°
2026-05-06 14:20 62.93770 -3.39812 36018 ft 439 kts 284°
2026-05-06 14:20 62.95260 -3.52826 36020 ft 439 kts 284°
2026-05-06 14:21 62.96737 -3.65852 36025 ft 439 kts 284°
2026-05-06 14:21 62.98194 -3.78812 36015 ft 439 kts 283°
2026-05-06 14:22 62.99646 -3.91854 36027 ft 439 kts 283°
2026-05-06 14:22 63.01086 -4.04906 36030 ft 439 kts 283°
2026-05-06 14:23 63.02513 -4.17964 36032 ft 439 kts 283°
2026-05-06 14:23 63.03928 -4.31032 36039 ft 438 kts 283°
2026-05-06 14:24 63.05330 -4.44108 36031 ft 438 kts 283°
2026-05-06 14:24 63.06720 -4.57189 36041 ft 438 kts 283°
2026-05-06 14:25 63.08099 -4.70297 36044 ft 438 kts 283°
2026-05-06 14:25 63.09465 -4.83416 36048 ft 439 kts 283°
2026-05-06 14:26 63.10821 -4.96557 36047 ft 439 kts 283°
2026-05-06 14:26 63.12166 -5.09724 36045 ft 439 kts 283°
2026-05-06 14:27 63.13499 -5.22912 36053 ft 440 kts 282°
2026-05-06 14:27 63.14820 -5.36115 36044 ft 440 kts 282°
2026-05-06 14:28 63.16130 -5.49339 36058 ft 440 kts 282°
2026-05-06 14:28 63.17428 -5.62569 36061 ft 440 kts 282°
2026-05-06 14:29 63.18715 -5.75835 36063 ft 440 kts 282°
2026-05-06 14:29 63.19989 -5.89105 36061 ft 440 kts 282°
2026-05-06 14:30 63.21251 -6.02391 36059 ft 440 kts 282°
2026-05-06 14:30 63.22500 -6.15682 36061 ft 440 kts 282°
2026-05-06 14:31 63.23737 -6.28981 36074 ft 440 kts 282°
2026-05-06 14:31 63.24960 -6.42280 36078 ft 440 kts 282°
2026-05-06 14:32 63.26161 -6.55496 36069 ft 440 kts 281°
2026-05-06 14:32 63.27359 -6.68812 36077 ft 440 kts 281°
2026-05-06 14:33 63.28544 -6.82140 36086 ft 440 kts 281°
2026-05-06 14:33 63.29717 -6.95482 36073 ft 440 kts 281°
2026-05-06 14:34 63.30879 -7.08842 36082 ft 440 kts 281°
2026-05-06 14:34 63.32027 -7.22209 36090 ft 440 kts 281°
2026-05-06 14:35 63.33164 -7.35601 36088 ft 441 kts 281°
2026-05-06 14:35 63.34290 -7.49016 36093 ft 441 kts 281°
2026-05-06 14:36 63.35403 -7.62444 36081 ft 441 kts 281°
2026-05-06 14:36 63.36504 -7.75887 36088 ft 441 kts 281°
2026-05-06 14:37 63.37592 -7.89336 36083 ft 441 kts 281°
2026-05-06 14:37 63.38668 -8.02803 36096 ft 441 kts 280°
2026-05-06 14:38 63.39731 -8.16281 36099 ft 441 kts 280°
2026-05-06 14:38 63.40775 -8.29673 36093 ft 441 kts 280°
2026-05-06 14:39 63.41812 -8.43168 36108 ft 441 kts 280°
2026-05-06 14:39 63.42838 -8.56674 36099 ft 441 kts 280°
2026-05-06 14:40 63.43850 -8.70189 36104 ft 441 kts 280°
2026-05-06 14:40 63.44849 -8.83703 36096 ft 441 kts 279°
2026-05-06 14:41 63.45835 -8.97230 36111 ft 441 kts 279°
2026-05-06 14:41 63.46808 -9.10762 36104 ft 441 kts 279°
2026-05-06 14:42 63.47770 -9.24320 36112 ft 441 kts 279°
2026-05-06 14:42 63.48719 -9.37888 36120 ft 441 kts 279°
2026-05-06 14:43 63.49656 -9.51480 36107 ft 442 kts 279°
2026-05-06 14:43 63.50581 -9.65093 36122 ft 442 kts 279°
2026-05-06 14:44 63.51494 -9.78730 36115 ft 443 kts 279°
2026-05-06 14:45 63.52841 -9.99221 36132 ft 443 kts 279°
2026-05-06 14:45 63.53575 -10.10589 36122 ft 443 kts 279°
2026-05-06 14:46 63.54446 -10.24267 36127 ft 443 kts 278°
2026-05-06 14:46 63.55303 -10.37951 36130 ft 443 kts 278°
2026-05-06 14:47 63.56147 -10.51639 36129 ft 443 kts 278°
2026-05-06 14:47 63.56979 -10.65341 36129 ft 443 kts 278°
2026-05-06 14:48 63.57797 -10.79047 36134 ft 443 kts 278°
2026-05-06 14:48 63.58601 -10.92741 36133 ft 442 kts 278°
2026-05-06 14:49 63.59391 -11.06429 36128 ft 442 kts 278°
2026-05-06 14:49 63.60167 -11.20103 36138 ft 441 kts 278°
2026-05-06 14:50 63.60929 -11.33772 36144 ft 441 kts 278°
2026-05-06 14:50 63.61678 -11.47446 36137 ft 441 kts 278°
2026-05-06 14:51 63.62416 -11.61148 36147 ft 442 kts 278°
2026-05-06 14:51 63.63135 -11.74772 36134 ft 442 kts 278°
2026-05-06 14:52 63.63849 -11.88525 36148 ft 443 kts 277°
2026-05-06 14:52 63.64550 -12.02308 36163 ft 443 kts 278°
2026-05-06 14:53 63.65238 -12.16111 36157 ft 444 kts 277°
2026-05-06 14:53 63.65914 -12.29934 36162 ft 444 kts 277°
2026-05-06 14:54 63.66577 -12.43762 36159 ft 444 kts 277°
2026-05-06 14:54 63.67226 -12.57585 36141 ft 444 kts 277°
2026-05-06 14:55 63.67861 -12.71412 36158 ft 444 kts 277°
2026-05-06 14:55 63.68483 -12.85234 36158 ft 443 kts 277°
2026-05-06 14:56 63.69091 -12.99061 36164 ft 443 kts 276°
2026-05-06 14:56 63.69686 -13.12894 36178 ft 443 kts 277°
2026-05-06 14:57 63.70268 -13.26729 36153 ft 443 kts 276°
2026-05-06 14:57 63.70837 -13.40573 36166 ft 443 kts 276°
2026-05-06 14:58 63.71392 -13.54432 36158 ft 444 kts 276°
2026-05-06 14:58 63.71935 -13.68310 36167 ft 445 kts 276°
2026-05-06 14:59 63.72467 -13.82238 36180 ft 446 kts 276°
2026-05-06 14:59 63.72986 -13.96202 36181 ft 447 kts 276°
2026-05-06 15:00 63.73493 -14.10221 36175 ft 449 kts 276°
2026-05-06 15:00 63.73988 -14.24289 36174 ft 450 kts 276°
2026-05-06 15:01 63.74470 -14.38387 36171 ft 451 kts 275°
2026-05-06 15:01 63.74940 -14.52531 36179 ft 452 kts 276°
2026-05-06 15:02 63.75396 -14.66683 36188 ft 452 kts 275°
2026-05-06 15:02 63.75839 -14.80848 36187 ft 452 kts 275°
2026-05-06 15:03 63.76267 -14.95001 36176 ft 451 kts 275°
2026-05-06 15:03 63.76681 -15.09157 36172 ft 451 kts 275°
2026-05-06 15:04 63.77081 -15.23302 36186 ft 450 kts 275°
2026-05-06 15:04 63.77464 -15.37334 36184 ft 450 kts 275°
2026-05-06 15:05 63.77836 -15.51463 36190 ft 450 kts 275°
2026-05-06 15:05 63.78193 -15.65578 36185 ft 450 kts 275°
2026-05-06 15:06 63.78537 -15.79697 36174 ft 449 kts 275°
2026-05-06 15:06 63.78867 -15.93810 36186 ft 449 kts 274°
2026-05-06 15:07 63.79183 -16.07933 36171 ft 450 kts 274°
2026-05-06 15:07 63.79486 -16.22080 36183 ft 450 kts 274°
2026-05-06 15:08 63.79775 -16.36238 36178 ft 451 kts 274°
2026-05-06 15:08 63.80053 -16.50412 36197 ft 451 kts 274°
2026-05-06 15:09 63.80326 -16.64495 36189 ft 451 kts 276°
2026-05-06 15:09 63.80957 -16.78603 36190 ft 451 kts 278°
2026-05-06 15:10 63.81717 -16.92678 36195 ft 451 kts 279°
2026-05-06 15:10 63.82450 -17.06773 36187 ft 451 kts 277°
2026-05-06 15:11 63.83144 -17.20882 36189 ft 451 kts 277°
2026-05-06 15:11 63.83813 -17.35006 36179 ft 451 kts 277°
2026-05-06 15:12 63.84466 -17.49129 36167 ft 451 kts 277°
2026-05-06 15:12 63.85105 -17.63251 36173 ft 451 kts 278°
2026-05-06 15:13 63.85732 -17.77390 36001 ft 454 kts 277°
2026-05-06 15:13 63.86046 -17.84560 35406 ft 458 kts 277°
2026-05-06 15:13 63.86355 -17.91736 34821 ft 457 kts 277°
2026-05-06 15:13 63.86659 -17.98904 34259 ft 456 kts 277°
2026-05-06 15:14 63.86957 -18.05987 33552 ft 456 kts 277°
2026-05-06 15:14 63.87254 -18.13142 32853 ft 455 kts 277°
2026-05-06 15:14 63.87547 -18.20288 32328 ft 452 kts 277°
2026-05-06 15:14 63.87823 -18.27390 31822 ft 448 kts 276°
2026-05-06 15:15 63.87983 -18.34468 31293 ft 446 kts 274°
2026-05-06 15:15 63.88043 -18.41520 30709 ft 446 kts 271°
2026-05-06 15:15 63.88019 -18.48535 30144 ft 444 kts 270°
2026-05-06 15:15 63.87955 -18.55501 29533 ft 441 kts 270°
2026-05-06 15:16 63.87879 -18.62387 29011 ft 436 kts 270°
2026-05-06 15:16 63.87804 -18.69198 28563 ft 431 kts 270°
2026-05-06 15:16 63.87733 -18.75943 28152 ft 425 kts 270°
2026-05-06 15:16 63.87666 -18.82616 27717 ft 420 kts 270°
2026-05-06 15:17 63.87600 -18.89231 27264 ft 416 kts 270°
2026-05-06 15:17 63.87535 -18.95780 26765 ft 414 kts 270°
2026-05-06 15:17 63.87469 -19.02272 26277 ft 411 kts 270°
2026-05-06 15:17 63.87401 -19.08720 25852 ft 408 kts 270°
2026-05-06 15:18 63.87331 -19.15129 25426 ft 405 kts 270°
2026-05-06 15:18 63.87259 -19.21507 24950 ft 404 kts 270°
2026-05-06 15:18 63.87184 -19.27852 24507 ft 401 kts 270°
2026-05-06 15:18 63.87106 -19.34165 24072 ft 400 kts 270°
2026-05-06 15:19 63.87026 -19.40458 23610 ft 398 kts 270°
2026-05-06 15:19 63.86942 -19.46721 23098 ft 396 kts 270°
2026-05-06 15:19 63.86858 -19.52937 22651 ft 393 kts 270°
2026-05-06 15:19 63.86771 -19.59101 22225 ft 389 kts 270°
2026-05-06 15:20 63.86682 -19.65204 21812 ft 386 kts 270°
2026-05-06 15:20 63.86592 -19.71263 21366 ft 383 kts 270°
2026-05-06 15:20 63.86500 -19.77270 20961 ft 380 kts 270°
2026-05-06 15:20 63.86406 -19.83234 20534 ft 377 kts 270°
2026-05-06 15:21 63.86310 -19.89162 20119 ft 375 kts 270°
2026-05-06 15:21 63.86213 -19.95049 19714 ft 373 kts 270°
2026-05-06 15:21 63.86113 -20.00901 19310 ft 370 kts 270°
2026-05-06 15:21 63.86012 -20.06720 18895 ft 368 kts 270°
2026-05-06 15:22 63.85909 -20.12513 18481 ft 367 kts 270°
2026-05-06 15:22 63.85805 -20.18279 18038 ft 365 kts 269°
2026-05-06 15:22 63.85698 -20.24005 17630 ft 362 kts 269°
2026-05-06 15:22 63.85591 -20.29673 17224 ft 359 kts 269°
2026-05-06 15:23 63.85482 -20.35307 16832 ft 356 kts 269°
2026-05-06 15:23 63.85371 -20.40906 16350 ft 356 kts 269°
2026-05-06 15:23 63.85259 -20.46485 15889 ft 355 kts 270°
2026-05-06 15:23 63.85144 -20.52051 15467 ft 355 kts 269°
2026-05-06 15:24 63.85028 -20.57632 15066 ft 356 kts 269°
2026-05-06 15:24 63.84909 -20.63235 14685 ft 357 kts 269°
2026-05-06 15:24 63.84789 -20.68742 14293 ft 354 kts 269°
2026-05-06 15:24 63.84667 -20.74284 13897 ft 352 kts 269°
2026-05-06 15:25 63.84552 -20.79359 13475 ft 350 kts 269°
2026-05-06 15:25 63.84428 -20.84824 13071 ft 347 kts 269°
2026-05-06 15:25 63.84302 -20.90240 12691 ft 344 kts 269°
2026-05-06 15:25 63.84176 -20.95605 12327 ft 340 kts 268°
2026-05-06 15:26 63.84049 -21.00917 11978 ft 336 kts 269°
2026-05-06 15:26 63.83920 -21.06183 11612 ft 333 kts 269°
2026-05-06 15:26 63.83785 -21.11410 11213 ft 331 kts 268°
2026-05-06 15:26 63.83559 -21.16606 10129 ft 330 kts 263°
2026-05-06 15:27 63.83286 -21.21689 9897 ft 322 kts 263°
2026-05-06 15:27 63.83007 -21.26675 9639 ft 316 kts 263°
2026-05-06 15:27 63.82735 -21.31563 9385 ft 310 kts 263°
2026-05-06 15:27 63.82472 -21.36363 9129 ft 304 kts 263°
2026-05-06 15:28 63.82216 -21.41082 8874 ft 299 kts 263°
2026-05-06 15:28 63.81965 -21.45721 8619 ft 295 kts 263°
2026-05-06 15:28 63.81719 -21.50288 8366 ft 290 kts 263°
2026-05-06 15:28 63.81475 -21.54793 8112 ft 286 kts 263°
2026-05-06 15:29 63.81235 -21.59237 7858 ft 282 kts 263°
2026-05-06 15:29 63.80996 -21.63619 7606 ft 279 kts 263°
2026-05-06 15:29 63.80760 -21.67951 7353 ft 276 kts 263°
2026-05-06 15:29 63.80525 -21.72233 7101 ft 273 kts 263°
2026-05-06 15:30 63.80291 -21.76463 6856 ft 270 kts 263°
2026-05-06 15:30 63.80059 -21.80653 6598 ft 267 kts 263°
2026-05-06 15:30 63.79828 -21.84803 6344 ft 264 kts 263°
2026-05-06 15:30 63.79597 -21.88908 6093 ft 262 kts 263°
2026-05-06 15:31 63.79368 -21.92978 5842 ft 260 kts 263°
2026-05-06 15:31 63.79140 -21.97011 5585 ft 258 kts 263°
2026-05-06 15:31 63.78912 -22.01012 5341 ft 255 kts 263°
2026-05-06 15:32 63.78459 -22.08921 4838 ft 252 kts 263°
2026-05-06 15:32 63.78235 -22.12802 4699 ft 245 kts 263°
2026-05-06 15:32 63.78019 -22.16527 4566 ft 240 kts 263°
2026-05-06 15:32 63.77804 -22.20242 4437 ft 238 kts 263°
2026-05-06 15:33 63.77588 -22.23944 4311 ft 237 kts 262°
2026-05-06 15:33 63.77372 -22.27623 4187 ft 236 kts 262°
2026-05-06 15:33 63.77153 -22.31311 4065 ft 236 kts 262°
2026-05-06 15:33 63.76934 -22.34990 4007 ft 236 kts 262°
2026-05-06 15:34 63.76862 -22.38720 3989 ft 241 kts 282°
2026-05-06 15:34 63.77418 -22.42287 3901 ft 243 kts 291°
2026-05-06 15:34 63.78017 -22.45847 3733 ft 238 kts 290°
2026-05-06 15:34 63.78584 -22.49316 3597 ft 232 kts 290°
2026-05-06 15:35 63.79127 -22.52662 3523 ft 220 kts 290°
2026-05-06 15:35 63.79640 -22.55828 3365 ft 210 kts 290°
2026-05-06 15:35 63.80232 -22.58768 3188 ft 201 kts 309°
2026-05-06 15:35 63.81381 -22.60246 3055 ft 190 kts 353°
2026-05-06 15:36 63.82258 -22.60327 2920 ft 193 kts 356°
2026-05-06 15:36 63.83599 -22.60480 2662 ft 192 kts 356°
2026-05-06 15:36 63.84932 -22.60539 2402 ft 190 kts 358°
2026-05-06 15:36 63.86254 -22.60543 2144 ft 188 kts 359°
2026-05-06 15:37 63.87550 -22.60541 1883 ft 183 kts 359°
2026-05-06 15:37 63.88778 -22.60540 1684 ft 170 kts 358°
2026-05-06 15:37 63.89907 -22.60540 1439 ft 157 kts 358°
2026-05-06 15:37 63.90990 -22.60541 1249 ft 156 kts 358°
2026-05-06 15:38 63.92076 -22.60541 1042 ft 156 kts 358°
2026-05-06 15:38 63.93164 -22.60541 827 ft 156 kts 359°
2026-05-06 15:38 63.94241 -22.60537 627 ft 154 kts 359°
2026-05-06 15:38 63.95304 -22.60540 414 ft 152 kts 358°
2026-05-06 15:39 63.96365 -22.60543 214 ft 152 kts 359°
2026-05-06 15:39 63.97368 -22.60544 170 ft 127 kts
2026-05-06 15:39 63.98097 -22.60544 170 ft 83 kts 360°
2026-05-06 15:39 63.98528 -22.60545 172 ft 47 kts
2026-05-06 15:40 63.98745 -22.60546 170 ft 17 kts 358°
2026-05-06 15:40 63.98830 -22.60667 170 ft 15 kts 315°
2026-05-06 15:40 63.98903 -22.60832 167 ft 11 kts 314°
2026-05-06 15:40 63.98966 -22.60938 166 ft 11 kts 351°
2026-05-06 15:41 63.99048 -22.60937 165 ft 13 kts
2026-05-06 15:41 63.99099 -22.60939 162 ft 1 kts 359°
2026-05-06 15:41 63.99102 -22.60939 162 ft 0 kts 359°
2026-05-06 15:42 63.99105 -22.60939 162 ft 2 kts 359°
2026-05-06 15:42 63.99133 -22.60940 161 ft 6 kts 359°
2026-05-06 15:42 63.99171 -22.60986 159 ft 7 kts 286°
2026-05-06 15:42 63.99173 -22.61125 156 ft 10 kts 269°
2026-05-06 15:43 63.99173 -22.61305 152 ft 13 kts 270°
2026-05-06 15:43 63.99173 -22.61523 148 ft 15 kts 269°
2026-05-06 15:43 63.99173 -22.61781 142 ft 18 kts 270°
2026-05-06 15:43 63.99173 -22.62040 139 ft 13 kts 270°
2026-05-06 15:44 63.99173 -22.62220 139 ft 10 kts 270°
2026-05-06 15:44 63.99172 -22.62374 139 ft 9 kts 269°
2026-05-06 15:44 63.99172 -22.62474 139 ft 4 kts 270°
2026-05-06 15:44 63.99172 -22.62492 139 ft 0 kts 270°
2026-05-06 15:46 63.99172 -22.62494 139 ft 1 kts 270°
2026-05-06 15:47 63.99172 -22.62532 139 ft 5 kts 270°
2026-05-06 15:47 63.99176 -22.62643 139 ft 9 kts 293°
2026-05-06 15:47 63.99241 -22.62699 139 ft 11 kts 329°
2026-05-06 15:47 63.99323 -22.62747 139 ft 13 kts
2026-05-06 15:48 63.99409 -22.62699 139 ft 13 kts 22°
2026-05-06 15:48 63.99492 -22.62654 139 ft 12 kts
2026-05-06 15:48 63.99542 -22.62600 139 ft 8 kts 76°
2026-05-06 15:48 63.99543 -22.62504 139 ft 4 kts 90°
2026-05-06 15:49 63.99543 -22.62473 139 ft 0 kts 90°